EW2809 Weather Reports


time (UTC)temp
C
wind
direction
speed
KPH
gust
KPH
rain 1hr
cm
rain 24hr
cm
rain mn
cm
humidity
%
barometer
mb
20260507160516 13 90 0.0 3.2 0.00 0.20 0.20 71 1011.8
20260507160016 13 90 0.0 1.6 0.00 0.20 0.20 67 1011.9
20260507155516 13 0.0 0.0 0.00 0.20 0.20 71 1011.8
20260507155016 12 90 0.0 1.6 0.00 0.20 0.20 71 1012.0
20260507154516 12 90 0.0 1.6 0.00 0.20 0.20 71 1012.0
20260507154016 12 90 0.0 3.2 0.00 0.20 0.20 69 1012.0
20260507153517 12 90 0.0 1.6 0.00 0.20 0.20 71 1012.0
20260507153016 12 90 0.0 3.2 0.00 0.20 0.20 71 1012.0
20260507152516 12 90 0.0 1.6 0.00 0.20 0.20 72 1011.9
20260507152016 12 90 0.0 3.2 0.00 0.20 0.20 73 1012.0
20260507151557 12 90 0.0 3.2 0.00 0.20 0.20 72 1012.1
20260507151016 12 90 0.0 1.6 0.00 0.25 0.20 78 1012.2
20260507150516 12 0.0 0.0 0.00 0.30 0.20 76 1012.2
20260507150016 12 90 0.0 1.6 0.00 0.30 0.20 78 1012.3
20260507145516 12 0.0 0.0 0.00 0.30 0.20 77 1012.4
20260507145016 12 90 0.0 1.6 0.00 0.30 0.20 81 1012.4
20260507144516 11 90 0.0 1.6 0.00 0.30 0.20 80 1012.4
20260507144017 11 0.0 0.0 0.00 0.33 0.20 83 1012.5
20260507143516 11 0.0 0.0 0.00 0.33 0.20 81 1012.6
20260507143016 11 90 0.0 1.6 0.00 0.36 0.20 83 1012.6
20260507142516 11 90 0.0 1.6 0.00 0.36 0.20 84 1012.5
20260507142016 11 0.0 0.0 0.00 0.41 0.20 88 1012.7
20260507141516 11 0.0 0.0 0.00 0.43 0.20 87 1012.7
20260507141036 11 0.0 0.0 0.00 0.48 0.20 86 1012.8
20260507140515 11 0.0 0.0 0.00 0.51 0.20 87 1012.7
20260507140016 11 0.0 0.0 0.00 0.53 0.20 87 1012.9
20260507135516 11 0.0 0.0 0.00 0.56 0.20 86 1012.8
20260507135015 11 0.0 0.0 0.00 0.58 0.20 87 1012.9
20260507134516 10 90 0.0 1.6 0.00 0.64 0.20 85 1012.9
20260507134017 11 0.0 0.0 0.00 0.66 0.20 88 1012.8
20260507133536 11 0.0 0.0 0.00 0.71 0.20 89 1012.8
20260507133016 11 0.0 0.0 0.00 0.76 0.20 89 1013.0
20260507132516 11 0.0 0.0 0.00 0.81 0.20 89 1012.9
20260507132016 11 0.0 0.0 0.00 0.84 0.20 89 1012.7
20260507131516 10 0.0 0.0 0.00 0.86 0.20 88 1012.7
20260507131036 10 0.0 0.0 0.00 0.86 0.20 90 1012.7
20260507130516 10 0.0 0.0 0.00 0.89 0.20 91 1012.7
20260507130016 10 0.0 0.0 0.00 0.89 0.20 91 1012.9
20260507125536 10 0.0 0.0 0.00 0.89 0.20 90 1013.0
20260507125016 10 0.0 0.0 0.00 0.91 0.20 91 1012.9
20260507124516 10 0.0 0.0 0.00 0.91 0.20 91 1012.8
20260507124016 10 90 0.0 3.2 0.00 0.91 0.20 92 1012.8
20260507123516 10 0.0 0.0 0.00 0.91 0.20 92 1012.9
20260507123015 10 0.0 0.0 0.00 0.94 0.20 91 1012.8
20260507122516 10 0.0 0.0 0.00 0.97 0.20 91 1012.7
20260507122016 10 0.0 0.0 0.00 0.97 0.20 91 1012.7
20260507121516 10 0.0 0.0 0.00 0.97 0.20 91 1012.7
20260507121016 10 0.0 0.0 0.00 0.97 0.20 92 1012.8
20260507120515 10 90 0.0 1.6 0.00 0.97 0.20 93 1012.6
20260507120016 10 0.0 0.0 0.00 0.97 0.20 93 1012.4
20260507115535 10 0.0 0.0 0.00 0.97 0.20 93 1012.5
20260507115015 10 0.0 0.0 0.00 0.97 0.20 93 1012.6
20260507114516 10 0.0 0.0 0.00 0.97 0.20 93 1012.5
20260507114015 10 90 0.0 1.6 0.00 0.97 0.20 93 1012.4
20260507113516 10 90 0.0 1.6 0.00 0.97 0.20 94 1012.4
20260507113015 10 0.0 0.0 0.00 0.97 0.20 94 1012.4
20260507112516 11 90 0.0 1.6 0.00 0.97 0.20 95 1012.3
20260507112036 11 90 0.0 3.2 0.00 0.97 0.20 96 1012.3
20260507111515 11 90 0.0 1.6 0.00 0.97 0.20 96 1012.4
20260507111016 11 0.0 0.0 0.00 0.97 0.20 96 1012.4
20260507110516 11 90 0.0 1.6 0.00 0.97 0.20 96 1012.4
20260507110015 11 0.0 0.0 0.00 0.97 0.20 96 1012.3
20260507105515 11 0.0 0.0 0.00 0.97 0.20 96 1012.3
20260507105015 11 0.0 0.0 0.00 0.97 0.20 96 1012.2
20260507104515 11 0.0 0.0 0.00 0.97 0.20 96 1012.0
20260507104016 11 0.0 0.0 0.00 0.97 0.20 96 1012.1
20260507103516 11 0.0 0.0 0.00 0.97 0.20 96 1011.9
20260507103016 11 0.0 0.0 0.00 0.97 0.20 96 1011.9
20260507102516 11 0.0 0.0 0.00 0.97 0.20 96 1011.9
20260507102015 11 0.0 0.0 0.00 0.97 0.20 96 1011.8
20260507101516 11 0.0 0.0 0.00 0.97 0.20 96 1011.8
20260507101015 11 0.0 0.0 0.00 0.97 0.20 96 1011.8
20260507100515 11 0.0 0.0 0.00 0.97 0.20 95 1011.6
20260507100035 11 0.0 0.0 0.00 0.97 0.20 95 1011.6
20260507095515 11 0.0 0.0 0.00 0.97 0.20 95 1011.8
20260507095016 11 0.0 0.0 0.00 0.97 0.20 95 1011.7
20260507094515 11 0.0 0.0 0.00 0.97 0.20 95 1011.8
20260507094015 11 0.0 0.0 0.03 0.97 0.20 95 1011.7
20260507093535 11 0.0 0.0 0.03 0.97 0.20 95 1011.5
20260507093015 11 0.0 0.0 0.03 0.97 0.20 95 1011.5
20260507092515 11 0.0 0.0 0.03 0.97 0.20 95 1011.4
20260507092016 11 0.0 0.0 0.03 0.97 0.20 95 1011.4
20260507091516 11 0.0 0.0 0.03 0.97 0.20 95 1011.6
20260507091017 11 0.0 0.0 0.03 0.97 0.20 95 1011.6
20260507090517 11 0.0 0.0 0.03 0.97 0.20 95 1011.7
20260507090017 11 0.0 0.0 0.03 0.97 0.20 95 1011.7
20260507085537 11 0.0 0.0 0.03 0.97 0.20 95 1011.5
20260507085017 11 0.0 0.0 0.03 0.97 0.20 95 1011.5
20260507084517 11 0.0 0.0 0.03 0.97 0.20 95 1011.4
20260507084018 11 0.0 0.0 0.00 0.94 0.18 95 1011.4
20260507083537 11 0.0 0.0 0.00 0.94 0.18 95 1011.3
20260507083057 11 0.0 0.0 0.00 0.94 0.18 95 1011.3
20260507082517 11 0.0 0.0 0.00 0.94 0.18 95 1011.3
20260507082017 11 0.0 0.0 0.00 0.94 0.18 95 1011.1
20260507081518 11 0.0 0.0 0.00 0.94 0.18 95 1010.9
20260507081017 11 90 0.0 1.6 0.00 0.94 0.18 95 1010.8
20260507080517 11 90 0.0 1.6 0.00 0.94 0.18 95 1010.8
20260507080037 11 0.0 0.0 0.00 0.94 0.18 95 1010.6
20260507075517 11 0.0 0.0 0.00 0.94 0.18 95 1010.7
20260507075017 11 90 0.0 1.6 0.00 0.94 0.18 95 1010.6
20260507074517 11 90 0.0 1.6 0.00 0.94 0.18 95 1010.7
20260507074017 12 90 0.0 3.2 0.00 0.94 0.18 95 1010.5
20260507073518 12 0.0 0.0 0.00 0.94 0.18 95 1010.4
20260507073017 12 0.0 0.0 0.00 0.94 0.18 95 1010.5
20260507072517 12 90 0.0 1.6 0.00 0.94 0.18 95 1010.4
20260507072038 12 0.0 0.0 0.00 0.94 0.18 95 1010.5
20260507071517 12 0.0 0.0 0.00 0.94 0.18 95 1010.4
20260507071017 12 0.0 0.0 0.00 0.94 0.18 95 1010.3
20260507070517 12 0.0 0.0 0.00 0.94 0.18 95 1010.5
20260507070017 12 0.0 0.0 0.00 0.94 0.18 95 1010.4
20260507065517 12 0.0 0.0 0.00 0.94 0.18 95 1010.4
20260507065017 12 90 0.0 1.6 0.00 0.94 0.18 95 1010.6
20260507064517 12 0.0 0.0 0.03 0.94 0.18 95 1010.4
20260507064018 12 90 0.0 1.6 0.03 0.94 0.18 95 1010.4
20260507063517 12 90 0.0 1.6 0.03 0.94 0.18 95 1010.5
20260507063017 12 0.0 0.0 0.03 0.94 0.18 95 1010.6
20260507062517 12 0.0 0.0 0.03 0.94 0.18 95 1010.4
20260507062058 12 0.0 0.0 0.03 0.94 0.18 96 1010.4
20260507061517 12 0.0 0.0 0.03 0.94 0.18 95 1010.4
20260507061017 12 90 0.0 1.6 0.03 0.94 0.18 95 1010.2
20260507060517 13 0.0 0.0 0.05 0.94 0.18 95 1010.1
20260507060017 13 0.0 0.0 0.10 0.94 0.18 95 1010.4
20260507055517 13 0.0 0.0 0.13 0.94 0.18 95 1010.5
20260507055017 13 0.0 0.0 0.15 0.94 0.18 95 1010.5
20260507054537 13 0.0 0.0 0.15 0.91 0.15 95 1010.5
20260507054017 13 90 0.0 1.6 0.15 0.91 0.15 95 1010.8
20260507053518 13 90 0.0 1.6 0.15 0.91 0.15 94 1010.5
20260507053017 13 0.0 0.0 0.15 0.91 0.15 94 1010.6
20260507052517 13 0.0 0.0 0.15 0.91 0.15 94 1010.4
20260507052017 13 90 0.0 1.6 0.15 0.91 0.15 93 1010.1
20260507051518 13 0.0 0.0 0.15 0.91 0.15 92 1010.3
20260507051017 13 90 0.0 1.6 0.15 0.91 0.15 92 1010.5
20260507050537 13 90 0.0 1.6 0.13 0.89 0.13 91 1011.0
20260507050017 14 90 0.0 1.6 0.08 0.84 0.08 90 1011.0
20260507045517 14 90 0.0 1.6 0.05 0.81 0.05 88 1011.0
20260507045017 15 90 0.0 1.6 0.03 0.79 0.03 87 1010.4
20260507044517 15 90 0.0 3.2 0.00 0.76 0.00 85 1010.5
20260507044037 15 90 0.0 4.8 0.00 0.76 0.00 84 1010.4
20260507043517 15 90 0.0 3.2 0.00 0.76 0.00 84 1010.5
20260507043038 15 90 0.0 4.8 0.00 0.76 0.00 83 1010.7
20260507042516 15 90 0.0 4.8 0.00 0.76 0.00 84 1010.8
20260507042016 15 90 0.0 1.6 0.00 0.76 0.00 84 1010.6
20260507041517 15 90 0.0 3.2 0.00 0.76 0.00 84 1010.4
20260507041018 15 90 0.0 1.6 0.00 0.76 0.00 84 1010.4
20260507040517 15 90 0.0 1.6 0.00 0.76 0.00 83 1010.3
20260507040037 16 0.0 0.0 0.00 0.76 0.00 83 1010.1
20260507035517 16 0.0 0.0 0.00 0.76 0.76 83 1010.1
20260507035017 16 90 0.0 3.2 0.00 0.76 0.76 84 1009.8
20260507034516 16 90 0.0 1.6 0.00 0.76 0.76 83 1010.0
20260507034037 16 90 0.0 3.2 0.00 0.76 0.76 83 1010.0
20260507033517 16 90 0.0 3.2 0.00 0.76 0.76 83 1010.0
20260507033017 16 90 0.0 3.2 0.00 0.76 0.76 85 1010.1
20260507032518 16 90 0.0 1.6 0.00 0.76 0.76 86 1010.1
20260507032017 16 90 1.6 8.0 0.00 0.76 0.76 85 1010.0
20260507031517 16 90 0.0 4.8 0.00 0.76 0.76 86 1009.9
20260507031017 16 90 0.0 1.6 0.00 0.76 0.76 87 1009.7
20260507030516 16 90 0.0 1.6 0.00 0.76 0.76 87 1009.5
20260507030016 16 90 0.0 1.6 0.00 0.76 0.76 86 1009.5
20260507025538 16 90 0.0 3.2 0.00 0.76 0.76 85 1009.6
20260507025037 16 0.0 0.0 0.00 0.76 0.76 86 1009.6
20260507024516 16 90 0.0 1.6 0.00 0.76 0.76 86 1009.5
20260507024017 17 90 0.0 1.6 0.00 0.76 0.76 85 1009.4
20260507023517 17 90 0.0 3.2 0.00 0.76 0.76 85 1009.3
20260507023016 17 90 0.0 3.2 0.00 0.76 0.76 86 1009.2
20260507022517 17 90 0.0 1.6 0.00 0.76 0.76 87 1009.5
20260507022017 17 90 0.0 1.6 0.00 0.76 0.76 88 1009.4
20260507021536 17 90 0.0 1.6 0.00 0.76 0.76 87 1009.2
20260507021057 17 0.0 0.0 0.00 0.76 0.76 87 1009.1
20260507020517 17 90 0.0 1.6 0.00 0.76 0.76 86 1009.0
20260507020016 17 90 0.0 3.2 0.00 0.76 0.76 86 1008.8
20260507015518 17 0.0 0.0 0.00 0.76 0.76 86 1009.1
20260507015017 17 90 0.0 4.8 0.00 0.76 0.76 85 1009.1
20260507014516 17 90 0.0 3.2 0.00 0.76 0.76 85 1009.1
20260507014016 17 90 0.0 3.2 0.00 0.76 0.76 86 1009.3
20260507013536 18 90 0.0 3.2 0.00 0.76 0.76 87 1009.3
20260507013016 18 90 0.0 3.2 0.00 0.76 0.76 89 1009.4
20260507012537 18 90 0.0 1.6 0.00 0.76 0.76 91 1009.3
20260507012017 18 0.0 0.0 0.00 0.76 0.76 92 1009.3
20260507011516 18 0.0 0.0 0.00 0.76 0.76 92 1009.0
20260507011016 18 0.0 0.0 0.00 0.76 0.76 92 1009.2
20260507010516 18 0.0 0.0 0.00 0.76 0.76 92 1009.2
20260507010017 18 0.0 0.0 0.00 0.76 0.76 91 1009.3
20260507005516 18 0.0 0.0 0.00 0.76 0.76 91 1009.1
20260507005016 18 0.0 0.0 0.00 0.76 0.76 91 1008.9
20260507004517 18 0.0 0.0 0.00 0.76 0.76 91 1008.8
20260507004016 18 0.0 0.0 0.00 0.76 0.76 90 1008.9
20260507003556 18 0.0 0.0 0.00 0.76 0.76 90 1008.9
20260507003016 18 0.0 0.0 0.00 0.76 0.76 89 1008.8
20260507002517 18 0.0 0.0 0.00 0.76 0.76 89 1008.7
20260507002016 18 0.0 0.0 0.00 0.76 0.76 89 1008.6
20260507001516 18 0.0 0.0 0.00 0.76 0.76 89 1008.5
20260507001017 18 0.0 0.0 0.00 0.76 0.76 88 1008.5
20260507000516 18 0.0 0.0 0.00 0.76 0.76 88 1008.6
20260507000016 18 90 0.0 1.6 0.00 0.76 0.76 89 1008.6
20260506235518 18 0.0 0.0 0.00 0.76 0.76 89 1008.7
20260506235036 18 0.0 0.0 0.00 0.76 0.76 89 1008.7
20260506234516 18 0.0 0.0 0.00 0.76 0.76 89 1008.5
20260506234016 18 0.0 0.0 0.00 0.76 0.76 89 1008.5
20260506233517 19 90 0.0 1.6 0.00 0.76 0.76 88 1008.3
20260506233017 19 0.0 0.0 0.00 0.76 0.76 88 1008.3
20260506232516 19 90 0.0 6.4 0.00 0.76 0.76 88 1008.4
20260506232016 19 0.0 0.0 0.00 0.76 0.76 87 1008.2
20260506231516 19 0.0 0.0 0.00 0.76 0.76 87 1008.1
20260506231016 20 90 0.0 1.6 0.00 0.76 0.76 87 1008.0
20260506230516 20 0.0 0.0 0.00 0.76 0.76 87 1008.0
20260506230017 20 0.0 0.0 0.00 0.76 0.76 87 1008.0
20260506225516 20 90 0.0 1.6 0.00 0.76 0.76 87 1007.9
20260506225016 19 0.0 0.0 0.00 0.76 0.76 86 1008.1
20260506224516 20 90 0.0 1.6 0.00 0.76 0.76 87 1008.1
20260506224016 20 0.0 0.0 0.00 0.76 0.76 87 1008.1
20260506223516 20 90 0.0 1.6 0.00 0.76 0.76 86 1008.0
20260506223016 20 90 0.0 1.6 0.00 0.76 0.76 86 1007.9
20260506222517 20 90 0.0 1.6 0.00 0.76 0.76 86 1007.9
20260506222016 20 90 0.0 1.6 0.00 0.76 0.76 86 1007.9
20260506221516 20 90 0.0 1.6 0.00 0.76 0.76 85 1007.9
20260506221016 20 90 0.0 1.6 0.00 0.76 0.76 86 1007.9
20260506220516 20 90 0.0 1.6 0.00 0.76 0.76 86 1007.8
20260506220037 20 90 0.0 1.6 0.00 0.76 0.76 86 1007.9
20260506215516 20 90 0.0 1.6 0.00 0.76 0.76 85 1008.0
20260506215016 20 90 0.0 1.6 0.00 0.76 0.76 85 1007.9
20260506214516 20 90 0.0 1.6 0.00 0.76 0.76 85 1007.9
20260506214016 20 90 0.0 1.6 0.00 0.76 0.76 85 1008.0
20260506213516 20 90 0.0 1.6 0.00 0.76 0.76 83 1007.9
20260506213016 20 90 0.0 1.6 0.00 0.76 0.76 83 1007.8
20260506212517 21 90 0.0 3.2 0.00 0.76 0.76 81 1007.7
20260506212016 21 90 0.0 3.2 0.00 0.76 0.76 82 1007.7
20260506211516 21 90 0.0 1.6 0.00 0.76 0.76 83 1007.7
20260506211016 21 90 1.6 9.7 0.00 0.76 0.76 84 1007.6
20260506210516 21 90 0.0 3.2 0.00 0.76 0.76 82 1007.5
20260506210016 21 90 0.0 3.2 0.00 0.76 0.76 83 1007.5
20260506205537 21 90 0.0 1.6 0.00 0.76 0.76 82 1007.4
20260506205016 21 90 0.0 3.2 0.00 0.76 0.76 81 1007.6
20260506204516 21 90 0.0 3.2 0.00 0.76 0.76 82 1007.6
20260506204016 21 90 0.0 3.2 0.00 0.76 0.76 83 1007.3
20260506203516 21 90 1.6 4.8 0.00 0.76 0.76 79 1007.2
20260506203016 22 90 0.0 3.2 0.00 0.76 0.76 80 1007.5
20260506202537 22 0.0 0.0 0.00 0.76 0.76 82 1007.6
20260506202016 21 90 0.0 1.6 0.00 0.76 0.76 79 1007.5
20260506201516 21 90 0.0 3.2 0.00 0.76 0.76 80 1007.5
20260506201016 21 90 0.0 3.2 0.00 0.76 0.76 81 1007.5
20260506200516 21 90 1.6 4.8 0.00 0.76 0.76 81 1007.5
20260506200017 21 90 0.0 4.8 0.00 0.76 0.76 82 1007.6
20260506195516 21 90 1.6 4.8 0.00 0.76 0.76 82 1007.4
20260506195016 21 90 1.6 4.8 0.00 0.76 0.76 81 1007.6
20260506194516 21 90 1.6 3.2 0.00 0.76 0.76 82 1007.7
20260506194016 21 90 0.0 3.2 0.00 0.76 0.76 83 1007.6
20260506193516 21 90 1.6 4.8 0.00 0.76 0.76 80 1007.6
20260506193036 21 90 1.6 6.4 0.00 0.76 0.76 82 1007.8
20260506192517 21 90 1.6 4.8 0.00 0.76 0.76 81 1007.8
20260506192016 21 90 1.6 3.2 0.00 0.76 0.76 83 1007.7
20260506191516 21 90 1.6 4.8 0.00 0.76 0.76 83 1007.7
20260506191016 21 90 0.0 3.2 0.00 0.76 0.76 86 1007.8
20260506190516 20 90 1.6 3.2 0.00 0.76 0.76 87 1007.9
20260506190016 20 90 0.0 3.2 0.00 0.76 0.76 86 1007.9
20260506185516 20 90 0.0 4.8 0.00 0.76 0.76 86 1007.9
20260506185037 19 90 0.0 4.8 0.00 0.76 0.76 89 1008.1
20260506184516 19 90 0.0 1.6 0.00 0.76 0.76 88 1008.0
20260506184016 19 90 0.0 3.2 0.00 0.76 0.76 88 1008.1
20260506183516 18 90 1.6 4.8 0.00 0.76 0.76 88 1008.2
20260506183016 19 90 0.0 3.2 0.00 0.76 0.76 88 1008.4
20260506182537 19 90 1.6 4.8 0.00 0.76 0.76 88 1008.2
20260506182016 18 90 1.6 3.2 0.00 0.76 0.76 88 1008.3
20260506181516 18 90 1.6 4.8 0.00 0.76 0.76 89 1008.3
20260506181036 18 90 0.0 3.2 0.00 0.76 0.76 90 1008.4
20260506180516 18 90 1.6 3.2 0.00 0.76 0.76 90 1008.5
20260506180037 18 90 1.6 8.0 0.00 0.76 0.76 91 1008.5
20260506175516 17 90 1.6 4.8 0.00 0.76 0.76 91 1008.6
20260506175016 17 90 0.0 1.6 0.00 0.76 0.76 93 1008.7
20260506174516 17 90 0.0 3.2 0.00 0.76 0.76 93 1008.7
20260506174016 17 90 0.0 3.2 0.00 0.76 0.76 93 1008.6
20260506173516 17 90 0.0 3.2 0.00 0.76 0.76 93 1008.6
20260506173016 17 90 1.6 4.8 0.00 0.76 0.76 92 1008.7
20260506172536 17 90 1.6 4.8 0.00 0.76 0.76 92 1008.7
20260506172016 17 90 1.6 6.4 0.00 0.76 0.76 93 1008.8
20260506171517 17 90 1.6 4.8 0.00 0.76 0.76 94 1008.9
20260506171015 17 90 0.0 4.8 0.00 0.76 0.76 93 1008.9
20260506170516 17 90 0.0 4.8 0.00 0.76 0.76 94 1008.9
20260506170016 17 90 1.6 6.4 0.00 0.76 0.76 93 1008.8
20260506165516 17 90 1.6 6.4 0.00 0.76 0.76 93 1008.9
20260506165016 17 90 0.0 3.2 0.00 0.76 0.76 94 1008.9
20260506164516 17 90 1.6 3.2 0.00 0.76 0.76 94 1008.9
20260506164015 16 90 0.0 3.2 0.00 0.76 0.76 94 1008.9
20260506163536 16 90 0.0 3.2 0.00 0.76 0.76 95 1008.9
20260506163016 16 90 1.6 6.4 0.00 0.76 0.76 94 1009.1
20260506162516 16 90 1.6 8.0 0.00 0.76 0.76 95 1008.9
20260506162016 16 90 1.6 6.4 0.03 0.76 0.76 95 1009.0
20260506161516 16 90 1.6 8.0 0.03 0.76 0.76 95 1009.0
20260506161016 16 90 1.6 8.0 0.08 0.76 0.76 95 1009.0